Temp
17 17 17 17 17 17 18 18 18 18 19 18 18 18 19 20 20 19 19 20 20 19 17 14 13 12 10 11 11 11 12 12 11 11 10 11 12 12 12 12 12 12 12 12 13 13 13 14 14 14 13 10 6 5 4 4 5 6 9 9 7 8 9 9 10 12 11 8 8 9 8 8 9 8 8 7 6 6 6 5 4 3 3 4 3 3 4
17 17 17 18 18 18 18 18 18 19 19 19 19 19 19 19 19 19 19 20 20 19 18 15 13 12 12 12 11 11 11 11 11 11 11 11 11 12 13 12 12 12 11 11 12 13 13 14 13 12 13 9 5 4 4 4 6 7 7 7 6 8 11 11 10 11 10 9 9 9 8 8 8 7 6 6 5 5 5 4 3 2 4 4 3 2 4
18 18 18 18 18 18 19 19 19 19 20 19 19 19 19 19 20 20 19 18 18 17 16 15 13 12 13 13 12 12 11 10 10 11 11 10 10 12 12 11 11 11 11 11 12 12 12 13 12 11 12 9 4 4 3 4 6 5 4 4 5 7 11 11 10 9 9 9 9 9 9 9 9 7 5 5 4 4 5 4 3 3 4 4 3 2 4
18 18 18 19 19 19 20 19 19 20 19 19 19 18 19 20 20 20 20 18 16 16 16 15 15 14 14 14 13 13 13 11 10 11 11 10 10 11 11 11 11 12 12 12 13 13 12 12 11 11 11 9 6 4 4 4 4 4 2 2 4 7 10 10 10 10 10 9 9 10 9 9 8 8 6 4 4 4 4 4 3 4 3 3 3 3 3
19 19 19 19 19 20 20 20 19 20 19 19 19 17 18 20 18 17 18 18 17 16 16 15 15 15 15 15 13 13 14 13 12 11 11 11 10 11 12 12 12 13 12 12 13 14 13 12 11 10 10 9 7 5 5 5 4 3 3 3 4 8 9 9 9 9 9 9 9 9 9 8 8 9 7 5 3 3 4 3 4 4 2 1 3 3 2
19 19 19 19 19 19 20 20 20 20 20 19 19 17 17 18 17 14 15 17 17 17 16 14 14 15 15 13 13 14 14 14 13 12 11 11 11 12 13 12 12 12 12 11 12 13 13 12 11 10 9 9 8 7 6 6 4 4 5 4 5 7 8 8 8 8 8 8 8 8 8 8 8 9 8 6 4 3 3 3 3 3 1 1 3 3 2
19 20 19 19 20 20 20 20 20 20 20 19 19 18 17 16 15 13 13 14 13 13 13 14 15 15 14 13 13 14 15 14 13 12 12 12 12 12 14 13 12 12 11 11 12 12 12 12 11 10 9 9 9 9 8 7 5 6 7 5 5 6 8 8 7 7 7 7 8 9 9 9 9 8 8 7 5 3 3 3 3 3 2 2 3 2 2
20 20 20 20 20 20 20 20 20 20 20 20 18 17 16 17 17 15 14 14 12 11 12 14 16 16 15 15 14 13 14 14 12 11 12 14 13 12 13 12 11 11 11 11 12 11 10 11 10 9 9 8 8 9 9 8 7 7 7 6 5 6 8 8 7 6 7 8 9 9 9 8 7 7 7 6 5 4 3 3 3 3 2 2 2 1 1
21 21 21 20 21 21 20 20 20 20 20 20 18 16 15 16 17 16 17 16 13 13 14 14 16 17 16 15 14 13 14 13 12 12 11 12 12 12 11 12 11 11 11 11 11 10 8 9 9 8 8 8 8 8 8 7 7 8 7 6 6 6 7 7 7 5 6 9 9 9 8 7 6 5 5 5 5 4 3 3 3 2 2 1 1 -0 0
22 21 21 21 21 21 21 21 21 21 20 20 19 16 15 16 17 17 18 17 14 14 15 16 17 16 13 12 12 12 12 11 12 13 12 10 10 10 10 11 11 11 12 11 9 7 6 7 7 7 7 8 7 7 6 6 7 7 7 5 5 5 5 6 6 6 7 9 9 8 7 7 6 5 5 5 4 3 2 2 3 3 2 1 -0 0 1
22 22 22 22 22 22 22 22 21 21 21 21 19 16 15 17 18 18 19 18 15 13 15 16 16 14 11 11 11 11 12 11 12 13 13 11 9 9 9 10 10 11 11 8 6 5 5 6 6 6 7 7 7 6 6 6 6 6 6 6 5 5 5 6 6 6 6 7 7 7 7 7 6 5 4 4 3 2 2 2 2 2 2 1 1 1 1
23 23 23 23 23 23 23 23 23 22 22 22 21 19 17 18 19 19 20 20 16 14 15 14 11 10 10 11 12 11 11 11 10 11 12 11 10 9 9 9 11 10 8 5 5 5 5 6 6 6 6 6 6 6 6 6 5 5 5 6 6 6 5 6 6 5 6 7 6 5 6 6 5 3 3 3 3 2 2 2 2 2 2 1 1 0 -0
23 23 23 23 23 23 23 23 23 23 22 22 22 21 19 19 19 19 19 19 15 14 14 12 8 8 10 11 11 11 10 10 9 9 10 10 10 9 8 8 9 8 5 5 5 5 6 7 7 6 6 6 6 6 7 6 6 5 5 5 5 5 5 6 6 6 6 6 4 4 6 6 4 3 3 3 2 2 1 0 1 1 1 0 -0 -1 -1
23 23 23 23 23 23 23 23 23 22 22 22 22 21 20 19 19 19 19 19 15 11 12 13 10 9 10 11 11 11 10 10 10 10 10 10 10 8 6 5 5 5 5 6 6 6 8 9 9 9 8 7 7 7 6 6 6 6 6 5 5 5 6 6 6 6 6 5 4 4 6 6 3 2 3 2 2 1 0 -1 -0 1 1 -0 -1 -1 -1
22 22 22 22 22 23 23 22 22 22 21 21 22 21 20 19 19 18 18 18 16 12 11 12 12 12 12 11 11 12 13 13 12 11 10 9 8 6 4 3 4 5 5 6 6 8 9 10 10 11 10 10 10 9 7 6 5 5 5 5 5 6 6 6 6 6 6 5 4 4 4 5 4 2 2 3 2 2 1 -1 -1 0 0 -0 -1 -1 -2
22 22 22 22 22 22 22 22 21 21 21 21 22 21 20 19 18 18 17 16 17 16 11 8 8 10 12 11 10 12 13 14 14 13 12 10 8 5 3 2 3 4 5 5 7 8 9 10 10 11 11 11 12 11 9 8 7 5 4 5 5 5 6 6 5 5 5 4 3 3 3 4 4 2 3 3 2 2 1 -1 -1 0 0 -0 -1 -2 -2
22 22 22 22 21 21 21 21 21 21 20 21 22 21 19 18 18 19 17 15 15 13 7 4 6 9 12 12 12 12 12 12 12 13 13 12 9 6 4 3 3 4 4 6 8 9 10 11 11 11 12 12 11 11 10 10 9 7 5 5 4 4 5 5 5 5 5 5 4 3 3 4 3 2 2 2 2 2 0 -1 -0 1 0 -0 -1 -2 -2
22 22 22 22 21 21 21 21 21 21 21 21 22 21 19 18 18 18 16 14 14 10 4 1 5 9 10 10 10 10 10 11 12 12 13 12 10 8 6 5 5 5 5 7 10 10 10 11 11 10 11 11 11 10 10 10 10 9 8 7 6 5 5 5 5 5 5 4 3 3 4 4 3 2 2 2 2 1 -1 -1 0 1 -0 -1 -1 -2 -2
22 22 22 21 21 21 21 21 21 21 21 21 21 20 18 17 18 18 16 14 13 11 4 1 4 6 4 4 7 8 9 10 10 12 13 13 11 8 7 7 7 7 6 7 10 10 10 12 12 10 10 10 10 10 9 9 9 9 8 7 7 6 5 5 5 4 4 4 4 4 4 3 3 3 3 2 1 -0 -1 0 1 0 -1 -1 -2 -2 -2
21 21 21 21 21 20 20 20 20 21 21 21 21 20 17 16 17 18 17 12 8 7 4 1 2 4 2 3 6 7 8 10 10 11 13 12 10 9 9 9 9 9 8 8 10 11 10 10 11 10 9 10 10 9 9 9 8 8 7 7 6 5 5 6 5 5 4 4 4 3 3 4 4 3 3 2 1 0 1 1 1 -0 -1 -1 -2 -2 -2
21 21 20 21 20 20 20 20 20 20 20 20 22 20 16 16 16 17 18 14 9 8 6 2 1 2 1 1 1 2 5 7 7 8 10 10 10 10 11 11 10 10 10 9 9 11 11 10 10 10 9 10 10 9 9 8 8 6 5 6 6 5 5 5 5 4 4 4 4 4 5 5 5 4 2 2 2 2 1 0 -1 -1 -1 -2 -2 -3 -3
20 20 20 20 20 20 20 20 19 20 20 19 22 20 16 14 15 16 17 15 8 5 4 2 1 1 0 0 1 0 1 2 2 2 5 8 10 10 10 10 10 8 8 8 9 10 10 9 9 9 9 9 10 9 8 8 7 6 5 5 6 6 5 5 4 4 4 4 4 5 6 6 5 3 3 2 2 2 1 -0 -1 -1 -2 -2 -3 -3 -3
20 20 19 20 20 19 20 19 19 20 19 19 21 20 16 14 14 15 16 12 4 2 3 2 2 2 1 1 1 1 2 1 1 0 1 4 9 10 8 8 8 7 7 7 7 8 8 8 8 8 8 8 8 8 8 8 7 7 6 6 6 5 5 4 4 4 5 5 5 6 5 4 3 3 3 2 2 1 0 -1 -1 -2 -2 -2 -3 -3 -3
19 19 19 19 19 19 19 19 19 19 19 19 20 19 16 15 15 15 15 11 6 6 6 4 4 4 2 2 2 2 2 1 1 1 1 2 6 9 8 5 5 6 6 5 5 6 7 7 7 7 7 8 7 7 8 8 7 7 6 6 6 5 4 4 4 4 3 4 5 6 4 3 3 3 3 2 1 1 0 -1 -1 -2 -2 -2 -2 -3 -3
18 19 19 19 19 18 19 18 18 18 18 18 18 18 17 16 15 15 15 13 12 12 11 8 5 3 2 2 2 2 2 2 2 2 1 -0 2 5 5 3 2 4 5 4 5 6 6 7 7 7 7 7 7 7 8 7 7 6 6 6 6 4 3 3 4 3 3 4 5 5 3 3 3 3 2 1 1 0 -0 -1 -1 -1 -2 -2 -3 -3 -3
17 17 18 18 17 18 18 18 18 18 18 18 18 18 17 15 15 15 15 15 14 13 12 9 6 3 2 3 2 2 3 3 3 2 1 -0 -0 0 1 1 2 3 3 4 5 5 6 7 7 7 7 6 5 6 7 6 6 6 5 5 5 4 4 4 4 3 3 4 5 4 2 2 3 2 2 1 0 -0 -1 -1 -1 -2 -2 -2 -3 -3 -4
16 16 17 17 17 17 17 17 17 17 17 17 17 17 16 15 15 16 15 14 15 15 13 9 6 4 3 3 2 3 3 3 3 2 0 -0 -1 -1 -1 0 2 3 4 5 5 5 6 7 7 6 6 5 4 5 5 4 5 5 4 4 4 4 4 4 3 2 2 3 3 2 1 1 1 1 1 0 -0 -1 -1 -1 -2 -2 -2 -3 -4 -4 -4
16 17 17 17 17 17 17 17 17 17 17 17 17 17 16 15 15 15 14 14 15 14 11 8 6 6 5 4 3 3 3 3 3 2 0 -0 -1 -1 -0 1 2 4 5 5 5 6 6 6 6 5 5 4 4 4 4 4 4 4 4 5 4 3 3 3 2 1 1 2 3 2 1 0 1 1 0 -0 -1 -1 -2 -2 -2 -2 -2 -3 -4 -4 -4
16 16 17 17 17 17 17 17 17 17 17 16 16 16 16 15 14 14 14 14 14 11 9 8 7 7 7 6 4 4 4 3 3 1 1 1 0 0 1 2 3 4 4 5 6 7 7 6 5 4 4 3 3 4 4 4 5 4 4 4 4 3 3 3 2 2 2 2 2 1 0 -0 -0 -0 -0 -1 -1 -1 -2 -2 -2 -2 -3 -3 -3 -4 -4
15 16 16 16 17 18 18 18 17 16 16 16 16 16 16 15 15 14 14 14 14 12 10 10 10 7 5 5 5 4 4 3 3 2 1 2 2 2 2 3 3 4 4 5 5 6 6 5 4 3 3 3 3 4 4 4 4 4 4 3 3 3 3 3 2 2 1 2 2 1 0 -0 -0 -0 -1 -1 -1 -1 -2 -2 -2 -2 -3 -3 -4 -4 -4
15 15 15 15 16 16 17 17 17 16 16 16 16 16 17 16 15 14 13 14 14 13 12 10 9 7 6 5 5 5 4 3 3 2 2 3 3 3 3 3 3 4 4 5 6 5 5 5 4 4 3 2 3 3 3 3 4 4 3 3 3 3 2 2 2 2 1 1 1 0 -0 -0 -1 -1 -1 -1 -1 -1 -2 -2 -2 -3 -3 -4 -4 -4 -5
15 15 15 15 15 15 16 16 16 17 17 16 14 13 13 13 14 14 13 14 14 13 13 12 10 9 9 7 5 5 5 4 3 3 3 4 4 4 3 3 4 4 4 5 6 5 5 4 4 4 3 2 2 3 3 3 3 3 3 3 3 3 2 2 2 1 1 1 0 -1 -1 -1 -1 -1 -2 -2 -2 -2 -2 -2 -3 -3 -3 -4 -4 -5 -5
15 15 15 15 15 15 15 15 15 16 16 14 13 12 12 13 13 13 14 14 13 12 12 13 12 11 10 8 6 6 5 5 5 6 5 5 4 4 4 4 4 4 4 5 5 5 4 4 4 4 3 2 2 2 3 3 3 3 3 3 3 2 2 2 1 1 1 0 -0 -1 -2 -1 -1 -1 -2 -2 -2 -2 -2 -3 -3 -3 -4 -4 -5 -5 -6
15 15 15 15 14 15 15 15 15 15 15 14 13 13 12 13 13 13 14 14 13 12 11 11 12 11 10 9 8 7 6 6 7 7 6 5 4 5 5 5 5 5 5 4 5 5 4 4 3 3 3 3 2 2 3 4 4 3 3 3 2 2 2 1 1 1 0 -0 -0 -1 -1 -1 -1 -2 -2 -2 -2 -2 -3 -3 -4 -4 -5 -5 -6 -6 -7
15 15 15 15 14 15 15 14 15 15 14 13 12 12 12 13 13 13 13 14 14 13 12 10 10 10 9 10 10 8 6 6 7 6 6 5 5 4 5 5 6 6 5 4 5 5 4 3 2 3 4 4 3 3 3 4 3 3 3 2 2 1 1 0 0 0 -0 -1 -1 -1 -1 -1 -2 -2 -2 -3 -3 -3 -3 -4 -4 -5 -6 -6 -7 -7 -8
15 15 15 15 15 15 14 14 14 14 13 12 12 13 13 13 13 13 13 13 13 13 11 10 9 8 8 9 10 8 6 7 7 6 5 5 5 4 4 5 6 5 4 4 5 4 3 2 2 3 4 4 4 3 3 3 3 2 2 2 1 1 0 0 -0 -0 -1 -1 -1 -1 -2 -2 -2 -3 -3 -3 -4 -4 -4 -5 -5 -6 -7 -7 -7 -8 -8
15 15 15 15 15 14 14 13 13 13 13 12 12 13 13 13 13 13 13 12 11 10 10 9 8 6 6 7 7 6 6 7 7 6 6 5 5 4 5 5 5 5 4 4 4 3 2 2 2 3 4 4 4 4 3 3 3 2 2 2 1 1 0 -0 -0 -1 -1 -1 -2 -2 -2 -2 -3 -3 -4 -4 -4 -5 -5 -6 -6 -7 -7 -8 -8 -9 -9
15 15 15 15 15 14 14 13 12 13 13 12 13 13 13 12 13 12 10 9 10 9 8 7 6 5 5 6 6 6 6 6 6 6 6 5 5 5 5 5 4 4 5 5 3 1 2 2 2 2 4 4 4 4 4 3 3 2 2 2 1 0 0 -0 -1 -1 -2 -2 -2 -2 -3 -3 -3 -3 -4 -4 -5 -5 -6 -6 -7 -7 -8 -9 -9 -9 -10
16 15 15 15 14 13 13 13 12 13 13 12 13 13 12 11 12 13 10 8 8 8 7 6 5 4 5 5 5 4 4 4 5 5 5 5 5 6 5 5 4 4 5 5 3 2 3 3 2 3 4 4 4 4 4 3 3 2 2 1 1 0 -0 -1 -1 -1 -2 -2 -2 -2 -3 -3 -4 -4 -4 -5 -5 -6 -6 -7 -8 -8 -9 -9 -10 -10 -11
15 15 14 14 13 13 13 13 13 13 13 12 13 13 12 11 11 10 10 10 9 7 6 5 3 2 2 4 4 3 2 3 4 4 3 3 4 4 4 5 4 4 5 5 3 2 3 4 3 3 4 4 4 4 3 3 3 2 2 1 1 0 -0 -1 -1 -1 -2 -2 -2 -2 -3 -3 -4 -4 -5 -5 -6 -6 -7 -8 -9 -9 -10 -10 -11 -11 -11
15 14 14 13 13 13 13 13 13 13 12 13 13 12 12 11 8 6 8 12 11 7 4 4 4 4 3 2 3 3 2 1 1 1 2 2 3 3 4 4 4 4 6 5 2 1 3 4 4 4 4 4 4 3 3 3 2 2 1 1 0 -0 -1 -1 -1 -2 -2 -2 -3 -3 -3 -4 -4 -5 -5 -6 -7 -8 -8 -9 -10 -10 -11 -11 -11 -11 -12
14 14 13 13 13 13 13 13 13 12 12 14 14 12 10 10 9 8 9 10 9 5 4 4 4 4 3 1 2 2 1 0 0 1 2 3 3 2 3 3 3 5 6 4 1 1 3 4 4 4 4 3 3 3 2 2 1 1 1 0 -0 -1 -1 -2 -2 -2 -3 -3 -3 -4 -4 -4 -5 -5 -6 -7 -8 -9 -9 -10 -10 -11 -11 -11 -12 -12 -12
13 13 13 13 13 13 13 13 12 12 13 14 14 13 12 11 9 9 8 7 5 4 5 4 4 4 3 1 1 1 1 -0 0 1 2 2 2 2 2 3 4 5 4 2 2 4 5 4 5 4 3 2 2 2 1 1 1 0 0 -0 -1 -1 -1 -2 -3 -3 -3 -4 -4 -4 -5 -5 -6 -6 -7 -8 -9 -9 -10 -11 -11 -11 -12 -12 -12 -13 -13
13 13 13 13 13 13 14 14 13 13 14 13 12 13 14 12 10 9 10 8 6 5 4 3 3 4 4 2 1 1 1 0 1 1 2 2 1 2 4 5 5 4 3 3 3 5 5 4 5 4 2 2 1 1 0 0 -0 -1 -1 -1 -1 -2 -2 -3 -4 -4 -4 -5 -5 -5 -6 -6 -6 -7 -8 -9 -10 -10 -11 -11 -11 -12 -12 -13 -13 -14 -14
14 14 14 15 14 13 14 15 13 12 13 12 11 12 12 12 11 11 9 5 4 4 3 1 2 3 3 2 1 1 0 1 2 2 2 1 2 3 4 4 3 2 3 4 4 5 5 5 4 3 1 1 0 -0 -1 -1 -1 -1 -2 -2 -2 -3 -3 -4 -4 -5 -5 -6 -6 -6 -7 -7 -8 -9 -9 -10 -10 -11 -11 -12 -12 -13 -13 -14 -14 -15 -15
13 12 13 16 15 12 12 14 14 13 11 9 9 10 10 10 10 8 3 -1 1 3 2 1 1 2 2 2 2 1 0 1 2 2 0 1 4 5 3 2 2 3 4 5 5 5 5 4 3 1 0 -0 -1 -1 -2 -2 -1 -1 -2 -3 -3 -4 -4 -5 -5 -6 -6 -7 -7 -7 -8 -8 -9 -10 -10 -11 -11 -12 -12 -12 -13 -13 -14 -15 -15 -16 -16
12 10 12 16 15 12 11 12 11 8 7 5 5 4 3 2 2 1 -2 -3 -1 1 -1 -1 -0 1 1 1 2 2 0 1 2 2 1 2 4 4 2 3 4 4 4 5 6 5 5 3 2 1 -0 -1 -2 -2 -2 -2 -2 -2 -3 -4 -4 -5 -5 -6 -6 -6 -7 -7 -8 -8 -9 -10 -11 -11 -11 -12 -12 -12 -12 -13 -13 -14 -15 -15 -16 -17 -17
12 11 13 14 13 12 11 9 6 4 3 1 -1 -2 -4 -2 1 1 -2 -4 -3 -1 -1 -0 1 2 1 1 2 2 1 1 3 2 1 1 3 4 4 5 6 4 4 5 6 5 4 2 1 -0 -1 -2 -2 -3 -3 -3 -3 -4 -5 -5 -5 -6 -6 -6 -7 -7 -7 -8 -9 -10 -10 -11 -11 -12 -12 -13 -13 -13 -13 -13 -14 -15 -16 -16 -17 -17 -18
10 11 11 10 9 8 7 5 5 6 4 -1 -3 -3 -3 -1 2 2 -3 -5 -3 -1 -2 -1 1 3 3 2 2 3 3 3 3 3 2 2 5 5 5 6 7 6 5 5 5 4 3 2 0 -0 -1 -2 -3 -3 -3 -3 -4 -5 -6 -6 -6 -7 -7 -7 -8 -8 -9 -9 -10 -11 -11 -12 -12 -12 -13 -13 -13 -13 -14 -14 -15 -15 -16 -17 -18 -18 -18
8 9 8 7 8 9 6 4 7 9 7 3 2 1 0 1 3 0 -3 -4 -3 -2 -2 -1 1 2 2 2 4 5 4 1 1 3 4 5 5 4 4 5 7 7 5 4 4 3 2 1 -0 -1 -2 -3 -3 -4 -4 -5 -5 -6 -7 -7 -7 -8 -8 -8 -9 -9 -10 -10 -11 -11 -12 -12 -13 -13 -13 -14 -14 -14 -15 -15 -16 -16 -17 -18 -18 -18 -18
8 7 5 4 6 7 6 7 9 10 8 6 6 3 2 2 3 0 -3 -4 -2 0 3 3 3 2 4 5 6 6 4 0 0 3 5 4 3 3 5 7 7 6 5 4 3 2 1 0 -1 -2 -3 -3 -4 -4 -5 -5 -6 -6 -7 -7 -8 -9 -9 -9 -10 -10 -11 -11 -11 -12 -12 -13 -13 -13 -14 -14 -14 -15 -16 -16 -16 -17 -18 -18 -18 -18 -19
9 8 5 2 1 2 3 5 7 6 5 5 4 2 1 2 0 -3 -4 -2 0 3 4 3 2 4 7 6 4 3 3 2 3 4 5 4 3 4 6 7 6 4 4 4 2 1 1 -1 -2 -3 -3 -4 -4 -5 -5 -6 -6 -7 -7 -8 -9 -9 -10 -10 -10 -11 -11 -11 -12 -12 -12 -13 -14 -14 -14 -15 -15 -16 -17 -17 -17 -18 -18 -18 -19 -19 -19
Height
820 821 822 823 823 824 824 824 824 823 823 823 823 823 823 825 829 828 824 823 820 823 841 855 858 865 873 872 872 873 872 873 875 876 877 876 874 874 873 874 874 874 875 873 871 871 869 862 861 862 864 874 886 890 891 890 888 884 875 872 879 878 871 866 854 841 844 854 855 852 853 852 852 855 854 858 864 864 867 871 873 878 874 866 871 861 827
822 823 824 824 824 824 824 824 823 823 824 823 823 823 825 827 828 827 825 822 820 829 844 855 863 869 871 870 873 874 874 875 875 876 877 877 876 874 873 875 876 875 876 876 872 871 869 863 865 867 865 876 890 891 890 889 884 883 881 880 882 873 860 858 857 849 847 851 853 853 853 852 852 858 861 862 867 869 867 870 878 879 867 863 872 860 825
824 824 824 824 824 824 824 824 824 824 824 823 823 824 826 828 828 828 828 824 824 837 847 852 861 868 867 869 872 872 875 879 879 878 879 880 879 877 875 877 877 876 876 875 872 872 871 867 869 871 869 878 890 891 890 890 885 886 889 888 887 876 861 860 863 863 862 860 857 853 850 848 848 856 866 867 870 873 868 868 877 875 861 860 870 858 829
824 824 825 824 824 824 824 824 824 824 824 824 823 824 826 828 832 834 833 832 835 845 850 850 857 863 863 867 871 871 873 878 879 879 879 880 880 878 876 877 877 874 873 873 870 869 871 872 871 872 871 876 886 888 888 889 887 889 891 891 888 878 866 862 860 859 860 860 856 851 850 853 851 851 860 868 871 870 868 871 872 866 864 864 862 854 839
824 824 824 824 824 824 824 824 824 824 825 824 824 826 827 831 841 847 843 841 845 849 853 855 858 860 860 866 872 872 872 875 877 878 878 879 880 877 875 876 875 873 873 874 870 866 869 872 873 876 877 877 881 886 886 886 886 888 890 890 886 877 869 865 862 859 857 857 856 852 853 855 850 846 852 863 872 871 869 872 865 862 873 869 852 849 848
824 824 824 824 824 824 824 824 825 825 825 824 824 828 831 835 847 853 850 850 854 854 856 860 861 860 862 869 874 872 872 873 874 876 877 879 879 876 873 874 875 875 877 877 873 869 868 869 871 877 880 878 878 880 882 883 885 886 886 885 885 880 873 869 867 864 861 861 858 854 853 851 846 844 846 853 866 871 869 868 864 867 876 866 849 849 849
824 824 824 824 823 824 825 825 825 825 825 825 824 829 836 841 847 853 853 855 862 864 863 863 862 861 864 870 873 871 870 873 875 877 877 875 876 875 872 874 877 877 878 878 875 874 873 872 874 877 878 879 877 875 876 880 883 883 881 883 886 881 872 869 871 870 866 862 854 848 848 846 843 844 844 847 859 868 867 865 864 865 866 859 852 852 847
824 824 824 824 824 824 825 825 826 825 825 826 825 829 836 838 841 848 852 857 864 867 866 863 861 860 862 866 872 873 871 872 876 879 877 873 874 876 874 876 878 878 878 878 875 876 878 877 878 880 880 880 878 874 873 877 880 879 878 883 885 879 871 868 872 874 866 853 846 845 845 847 849 849 847 849 856 862 864 864 864 864 862 857 855 855 847
824 825 825 825 825 825 825 826 826 826 826 826 827 831 834 835 837 840 844 855 865 865 864 864 860 860 864 867 872 873 872 874 876 877 879 878 876 878 879 878 878 878 877 877 876 879 882 881 880 881 881 880 878 876 876 878 878 877 879 883 882 880 877 872 874 878 866 848 844 847 846 849 856 856 853 853 856 860 865 866 865 866 864 859 859 858 849
825 826 826 826 826 826 827 827 826 827 826 826 828 832 834 835 837 837 839 853 865 865 862 861 859 864 872 875 875 875 875 878 876 874 878 882 881 882 882 880 879 876 874 876 879 883 885 883 882 882 881 879 879 879 880 881 879 876 880 885 884 884 884 878 876 877 864 849 849 852 850 851 854 856 855 855 858 863 866 866 864 863 863 864 862 855 846
827 827 827 827 827 827 827 827 827 827 827 826 828 832 834 834 836 838 839 850 864 867 863 861 863 870 877 878 877 877 877 878 877 874 875 880 883 884 883 882 880 877 876 881 885 886 886 884 883 882 881 880 880 881 881 881 882 880 880 883 884 886 887 880 877 878 868 856 854 855 851 850 853 857 859 860 863 869 869 868 865 861 860 860 856 849 847
829 829 829 829 828 828 828 828 828 828 828 828 829 831 833 834 834 836 838 848 863 867 864 869 876 879 879 878 877 877 877 878 880 879 878 879 883 884 884 883 880 879 883 887 887 887 886 885 884 883 882 881 881 881 880 880 882 882 881 882 882 883 883 878 876 880 871 859 863 867 857 851 857 863 863 863 865 868 868 866 863 860 858 856 854 852 852
831 831 831 831 830 830 830 829 830 830 829 831 830 831 833 834 834 837 840 848 864 869 867 876 886 884 880 879 878 879 881 882 883 883 882 881 882 884 885 885 884 885 888 888 888 888 885 881 881 883 883 883 882 881 879 880 881 882 882 883 883 883 882 878 874 874 868 866 877 878 860 852 863 867 864 865 867 868 870 866 859 858 858 857 857 856 853
834 833 833 833 832 832 831 831 831 831 831 832 832 832 834 834 835 838 838 846 865 876 873 873 880 881 879 878 878 879 880 881 882 882 882 881 882 885 888 889 889 889 889 888 888 887 881 875 872 873 877 880 879 878 879 880 880 881 882 882 883 882 881 879 875 871 870 876 882 874 857 854 866 870 868 870 871 871 875 871 859 855 856 858 858 856 852
836 835 835 835 834 834 833 833 833 832 832 833 833 833 835 835 836 837 837 844 860 874 875 873 874 876 877 878 878 877 875 876 876 878 881 884 885 889 891 891 891 890 890 889 887 883 878 874 869 865 866 866 862 864 875 881 881 883 883 881 883 882 879 880 880 873 871 878 882 877 866 858 864 871 869 869 870 870 873 873 862 854 855 856 856 855 852
838 837 837 836 836 836 835 835 834 834 834 834 835 835 835 836 837 836 839 844 851 862 874 881 881 878 876 879 880 878 875 874 873 874 877 881 886 891 893 892 891 890 890 890 887 881 877 875 872 868 863 858 854 857 865 870 874 882 886 884 884 883 878 879 883 878 876 880 885 885 875 862 863 870 867 867 870 868 869 872 862 853 854 855 854 854 852
840 840 839 838 838 837 837 837 836 836 836 836 836 836 836 838 839 837 840 845 854 869 882 886 884 879 876 876 879 879 878 878 876 875 874 877 884 889 892 892 892 891 892 889 883 878 875 872 870 867 862 857 859 861 861 859 862 872 883 884 885 886 883 880 882 880 876 877 881 883 876 866 866 869 867 868 867 864 870 872 858 848 853 855 854 854 852
842 842 841 841 840 839 839 839 838 838 838 838 838 837 838 839 839 839 841 846 857 875 887 887 884 881 880 880 881 882 881 880 879 877 875 876 881 885 889 891 889 890 891 887 878 874 873 868 866 869 867 862 863 865 864 862 861 863 870 874 875 880 882 880 879 880 879 881 883 878 869 865 867 868 867 867 863 864 873 870 855 848 853 854 854 854 852
845 845 844 843 842 842 841 841 840 840 840 839 839 839 840 842 841 840 843 848 857 872 886 889 887 886 888 888 886 884 884 883 882 880 876 876 880 884 886 887 886 886 889 886 878 874 873 867 865 870 872 867 865 867 868 868 866 865 868 872 875 879 881 877 876 880 881 880 880 875 867 864 867 866 863 865 869 872 870 860 852 853 854 853 854 854 851
848 847 846 845 845 844 843 843 842 842 841 840 840 841 842 844 843 841 843 850 862 878 888 890 889 889 891 890 888 887 885 884 883 882 879 879 882 883 881 881 882 883 885 884 879 874 874 873 870 873 876 871 868 870 871 870 871 872 875 878 879 882 882 876 875 879 878 875 878 880 873 864 862 863 863 866 871 870 862 855 855 857 855 854 854 853 851
850 849 849 848 847 846 845 845 844 843 843 843 842 841 844 845 845 844 843 846 856 873 886 891 891 891 892 892 892 892 890 888 888 887 885 883 882 881 879 880 882 882 882 884 882 876 875 877 876 876 876 872 868 871 873 872 873 878 882 882 880 882 883 880 879 881 882 882 881 877 867 858 859 863 864 864 864 862 859 859 859 857 856 856 854 851 850
853 852 851 850 850 849 848 847 847 846 845 846 844 842 845 848 849 849 848 848 857 873 886 891 892 892 892 893 893 893 893 894 894 893 892 888 883 883 883 883 885 886 887 888 885 881 880 881 881 880 879 875 872 873 875 876 876 880 884 883 880 879 881 883 883 881 881 880 874 864 859 858 861 863 863 862 861 860 860 861 859 858 858 857 854 851 849
855 855 854 853 852 852 851 850 850 849 848 849 847 845 847 851 852 851 851 855 867 881 889 891 891 893 894 894 894 894 894 894 894 894 895 892 886 884 886 888 889 890 891 892 891 890 888 887 887 887 884 881 881 880 877 876 877 879 880 879 878 879 880 884 885 881 877 874 866 861 862 863 863 864 863 862 861 860 861 861 860 858 857 856 854 851 848
858 857 857 856 855 855 854 853 853 852 851 851 850 849 850 852 854 854 854 860 869 879 887 892 893 894 896 896 895 895 895 895 894 894 895 895 890 887 889 893 894 893 893 895 895 894 893 890 890 891 888 885 885 884 880 878 878 879 879 877 878 882 885 885 884 884 882 875 864 862 866 867 865 864 862 861 861 861 861 861 859 857 855 854 853 851 847
861 860 859 859 858 857 857 856 855 855 854 854 853 853 853 854 856 856 856 860 866 871 880 890 896 897 898 898 896 896 895 895 895 894 894 896 895 893 893 896 897 895 896 897 895 895 894 891 891 892 890 888 888 885 882 882 882 882 882 881 880 884 888 887 884 884 882 874 865 865 868 867 865 863 861 861 862 860 860 860 858 856 854 853 851 850 846
863 863 862 861 861 860 859 859 859 858 858 858 857 856 855 856 858 858 858 860 864 867 877 889 897 898 898 897 897 897 896 895 895 895 895 896 896 897 897 897 897 897 896 896 895 895 894 892 891 891 889 891 893 890 887 887 886 885 886 886 885 886 887 885 883 883 879 872 868 869 868 864 862 863 862 862 862 860 859 858 856 854 853 851 850 848 845
866 865 865 864 864 863 862 862 862 861 861 861 860 859 859 859 860 861 860 861 862 865 875 889 897 899 898 898 898 897 896 896 896 895 896 896 896 897 897 897 897 897 895 895 895 895 893 892 892 893 892 894 896 895 892 892 891 890 889 887 886 887 887 885 886 888 885 878 875 876 875 868 862 862 863 862 862 860 858 856 855 854 852 851 849 846 844
868 867 867 866 865 865 864 864 864 864 864 863 862 862 861 861 862 862 862 863 862 865 876 889 895 896 896 897 898 897 896 896 896 896 896 897 897 897 897 897 897 896 895 894 894 894 892 892 893 894 896 898 899 895 894 894 892 892 891 888 888 891 891 890 892 893 888 882 878 878 878 872 865 863 863 862 861 860 858 856 854 853 851 850 848 845 842
870 869 868 867 866 865 865 864 865 865 865 865 865 864 863 864 866 865 864 864 863 867 878 888 893 895 896 897 898 898 897 897 897 897 897 897 897 897 897 897 896 896 895 895 894 892 892 893 897 898 899 901 901 897 894 893 892 892 892 892 891 892 892 892 893 891 887 882 880 879 877 873 867 865 865 863 861 859 857 855 853 852 850 849 847 844 841
872 871 870 869 868 867 866 865 865 866 866 865 865 865 865 866 868 868 868 868 867 869 875 882 888 895 898 898 898 898 897 897 897 897 897 897 897 897 896 896 896 896 895 894 894 894 893 894 897 899 900 901 901 898 896 895 894 892 894 894 893 893 892 892 892 890 887 882 880 878 876 872 868 865 864 862 861 859 857 854 853 851 850 848 846 844 841
874 873 872 871 870 869 868 867 866 866 866 865 866 866 868 869 870 870 870 870 869 870 873 881 890 896 898 898 899 898 898 897 897 897 897 897 896 896 896 896 896 895 895 894 893 893 895 895 897 899 900 901 901 900 900 900 897 895 895 895 894 893 893 891 890 890 887 883 879 876 874 872 869 866 863 861 860 859 857 854 852 850 849 847 845 843 840
876 875 874 874 873 872 871 870 870 868 867 866 868 870 872 873 872 872 871 871 871 871 873 879 888 893 894 897 899 898 897 897 896 896 897 896 896 896 896 896 895 895 895 894 893 894 896 898 898 899 901 901 902 902 902 902 900 898 897 896 894 893 892 891 889 888 886 883 880 876 871 869 869 867 864 861 860 858 856 853 851 850 848 846 844 842 839
877 876 876 875 875 874 874 873 873 871 870 870 871 873 874 873 873 873 872 871 872 872 873 878 885 888 891 896 898 898 897 896 896 895 896 896 896 896 895 895 895 895 895 894 894 896 898 898 898 899 901 902 903 903 903 902 900 898 896 894 893 892 892 890 888 887 884 883 882 879 874 870 868 867 865 861 859 858 856 853 851 849 847 845 843 840 838
878 877 877 876 876 876 875 875 875 874 873 873 874 875 875 874 874 874 873 872 873 874 877 882 886 890 892 894 896 897 897 896 896 896 896 896 896 896 895 894 894 894 895 896 895 896 898 900 901 902 902 902 903 904 901 899 897 896 895 894 893 892 891 890 888 886 884 881 880 879 876 872 868 866 864 861 859 858 856 853 851 848 846 844 842 839 837
878 878 877 877 877 876 876 876 876 875 875 876 877 878 877 876 876 875 874 873 874 877 882 888 891 895 897 895 893 895 898 898 897 898 897 896 896 896 896 894 893 894 896 897 895 896 900 903 905 902 900 900 902 903 900 898 897 896 895 894 894 892 891 890 887 885 883 880 878 876 874 872 869 866 864 862 860 858 856 854 852 849 847 844 841 839 836
879 878 878 877 877 877 877 877 876 877 877 878 879 879 878 878 878 878 877 876 876 880 887 893 898 904 905 900 897 898 899 898 897 898 897 897 896 897 896 895 894 896 897 898 898 899 902 904 904 901 898 898 900 901 900 898 898 897 896 895 895 894 892 891 888 885 882 879 877 874 872 870 868 866 864 862 861 859 856 854 851 849 848 845 842 839 836
878 878 878 877 877 877 878 878 879 879 879 879 880 880 879 879 879 878 878 880 881 885 889 895 903 911 912 907 905 903 901 899 898 898 898 899 898 898 897 896 896 897 897 898 902 905 905 905 905 902 899 899 899 899 898 898 897 897 896 895 894 894 893 891 889 885 881 878 875 873 871 869 867 866 864 861 860 859 857 854 852 850 848 846 843 840 837
879 878 878 877 877 879 880 880 880 880 880 880 880 879 880 880 880 881 885 887 888 891 895 901 908 913 913 910 908 905 903 903 901 898 899 901 900 897 896 897 899 899 897 898 904 907 905 905 907 905 900 898 898 897 897 897 897 896 896 895 895 894 892 891 889 886 883 880 876 874 872 870 868 866 865 862 860 859 858 856 854 852 850 847 845 841 837
878 878 878 877 879 881 881 881 881 880 880 881 880 880 883 883 881 885 891 894 896 898 902 906 912 915 913 911 910 909 909 909 905 903 904 904 900 898 898 899 900 900 897 896 902 904 901 901 905 904 900 898 898 897 896 897 896 896 896 895 895 894 893 891 889 888 886 884 880 878 875 873 871 869 867 864 861 860 859 858 855 853 850 848 845 842 838
879 879 879 879 881 882 881 881 881 880 880 881 880 881 885 886 889 894 896 894 897 905 909 911 915 918 916 915 914 913 912 912 909 910 911 908 905 905 904 902 902 902 899 898 903 905 902 901 901 901 899 898 898 897 896 896 896 896 896 895 895 894 893 891 889 888 886 884 881 879 877 876 874 871 869 866 864 861 860 859 856 854 851 848 845 842 839
880 879 879 880 881 881 881 882 881 880 882 882 882 886 890 893 900 907 902 893 897 909 915 915 915 915 916 917 916 914 914 915 914 915 915 912 909 908 906 904 904 901 896 898 906 909 905 901 899 898 899 899 898 897 897 896 896 896 895 895 894 893 892 891 889 887 885 883 881 879 878 876 875 873 871 869 867 865 863 860 857 854 852 848 845 843 840
881 881 881 882 882 881 881 881 881 882 882 880 883 893 901 900 901 905 903 900 905 914 915 914 914 914 915 917 917 915 916 917 916 915 914 911 910 910 909 909 906 897 893 901 910 909 903 899 897 896 898 899 898 898 898 897 896 896 895 894 894 893 891 890 888 886 885 883 881 880 878 876 875 873 872 870 868 866 863 861 858 854 851 849 846 843 840
881 881 881 881 881 881 881 882 883 885 887 886 887 893 898 901 904 907 908 909 915 917 914 914 916 915 914 917 917 917 917 917 916 917 916 913 913 914 911 907 902 898 899 907 908 902 897 897 896 897 899 900 898 899 899 897 896 896 895 894 894 892 891 890 888 886 885 884 882 880 879 877 875 874 872 871 869 865 862 860 858 855 852 849 846 843 841
881 881 880 881 882 882 881 883 885 886 890 894 896 895 895 899 905 907 905 907 913 915 915 917 918 914 914 917 918 917 917 917 916 916 915 915 916 915 907 901 901 903 905 906 903 898 896 896 896 897 900 900 899 900 900 898 896 896 895 894 893 892 890 890 888 886 885 883 882 881 879 877 876 874 872 871 869 866 863 860 857 854 852 849 846 844 841
880 881 880 880 883 884 883 885 889 893 896 901 903 901 899 900 901 902 906 912 916 916 917 920 920 918 917 918 917 918 920 919 915 915 917 918 915 910 905 905 908 909 907 904 901 897 894 895 897 899 901 901 901 901 900 898 896 896 894 893 892 891 890 889 888 886 885 884 882 881 880 878 876 874 872 870 869 867 864 861 858 855 852 849 846 843 841
881 885 883 881 884 890 891 890 892 897 903 907 908 906 905 905 905 909 916 921 920 918 918 921 922 920 918 918 917 918 921 919 915 918 922 918 909 905 908 910 910 906 902 899 897 893 891 895 899 901 902 902 902 900 899 898 896 895 895 894 893 891 890 889 888 887 885 884 883 881 880 879 877 875 872 870 868 867 864 862 860 857 854 851 849 845 842
884 888 885 882 887 895 897 898 902 907 912 915 916 916 918 918 918 920 922 923 921 921 923 923 922 920 920 920 918 918 921 921 917 918 921 916 909 909 912 909 904 903 900 895 891 891 893 897 900 901 902 902 902 900 899 897 896 895 895 894 893 892 890 889 888 887 885 884 883 882 880 879 877 875 873 870 868 866 864 862 860 857 855 853 850 847 843
886 888 886 888 895 900 901 906 914 917 919 921 923 925 926 924 921 920 922 923 924 923 922 921 921 919 919 920 918 916 919 919 915 915 920 919 911 907 905 899 896 900 901 895 891 893 896 898 900 901 902 902 901 900 899 897 896 896 895 894 893 892 891 889 888 888 886 885 884 882 880 878 876 874 873 870 868 866 864 862 860 858 856 853 850 847 844
889 890 892 900 907 909 912 916 916 914 917 923 926 926 925 923 920 920 922 924 923 922 922 923 920 916 916 919 918 916 916 916 913 915 919 915 906 904 905 900 893 893 894 894 893 895 897 899 900 901 901 901 900 899 898 897 896 896 895 894 893 892 891 890 889 888 887 886 885 882 880 879 876 873 872 870 868 867 865 863 861 859 856 854 851 848 844
893 896 903 908 907 908 914 917 911 907 913 920 921 921 922 921 920 921 923 924 924 923 922 921 919 917 918 918 913 909 913 920 920 916 910 905 904 909 909 900 890 888 891 894 896 896 897 898 900 899 900 901 900 898 897 897 896 895 895 894 893 892 891 890 889 888 887 886 885 883 881 879 877 874 872 871 869 867 866 864 861 858 855 853 851 848 845
898 903 911 915 911 910 913 912 906 906 911 915 915 918 921 920 919 921 923 924 924 921 917 917 919 918 915 910 905 904 912 922 923 915 907 905 910 911 901 889 886 890 892 894 895 896 896 898 899 899 899 900 898 897 897 897 896 895 895 893 892 892 891 889 889 888 887 886 884 883 881 879 877 875 873 871 868 866 863 861 859 858 855 852 850 849 846
903 906 914 919 919 918 918 915 912 914 916 917 918 920 921 920 921 923 924 923 921 918 916 918 920 915 907 906 911 914 915 916 914 908 903 903 906 903 893 886 888 892 893 893 895 896 896 897 898 898 898 898 898 897 896 896 895 894 894 892 891 891 890 889 888 887 886 885 884 883 881 879 877 875 872 870 867 865 862 860 859 858 856 854 852 850 848
Wind_Speed
14 12 11 9 7 5 4 5 7 7 6 4 5 4 2 2 1 5 15 11 4 6 6 3 4 4 1 1 1 1 1 1 0 0 1 1 1 1 1 1 2 2 2 2 2 2 2 2 1 1 2 2 1 1 1 2 1 1 1 1 2 1 2 3 5 4 0 2 2 3 4 4 3 1 1 2 2 2 3 3 2 2 3 5 6 10 11
11 9 7 4 2 3 4 4 4 3 2 3 5 2 2 2 2 3 16 13 3 4 4 3 3 3 2 2 2 1 2 3 1 1 3 2 1 2 1 1 1 1 1 1 2 1 1 1 1 0 2 1 1 1 1 1 1 1 1 1 2 1 1 3 5 4 3 3 3 3 2 2 0 2 1 2 2 2 3 2 1 1 4 4 6 11 11
7 5 3 1 1 1 1 2 4 4 3 4 4 3 3 1 1 1 13 18 10 4 1 3 5 3 3 3 2 1 2 2 1 2 2 1 1 1 0 0 1 1 1 1 3 1 1 0 0 0 1 1 2 1 1 1 1 2 1 1 1 1 2 3 3 3 4 5 5 5 5 4 2 2 4 3 4 4 2 2 2 3 6 6 7 11 15
5 3 2 1 0 1 0 0 1 2 3 3 4 4 1 1 2 2 6 11 9 4 2 4 5 4 3 3 2 2 2 2 0 1 1 1 1 1 1 1 1 1 1 2 3 2 4 2 1 2 1 0 1 2 3 2 0 2 1 1 1 1 3 3 3 4 4 5 8 9 7 6 7 5 4 6 5 3 1 0 3 5 8 9 9 11 18
3 3 1 0 0 1 3 4 4 4 3 3 5 5 3 2 2 1 1 3 4 4 4 5 3 2 1 1 1 2 2 2 1 1 1 0 0 1 1 1 0 1 2 2 3 2 1 2 0 1 2 1 1 3 4 3 3 4 2 2 1 1 3 2 2 4 6 8 12 13 10 8 11 10 4 5 6 4 4 3 5 5 6 9 11 13 19
2 2 2 1 2 3 4 4 4 3 2 3 4 3 4 2 2 1 0 1 2 2 3 3 4 4 2 1 1 1 2 1 1 1 0 1 1 0 0 1 1 2 2 2 2 5 4 1 1 0 2 2 1 3 3 3 5 5 3 2 2 0 3 1 1 5 9 12 14 13 9 9 10 10 8 4 6 7 5 6 7 4 5 11 17 20 21
3 3 3 4 2 4 4 1 3 3 3 4 5 4 3 3 3 0 0 2 2 0 2 2 3 4 3 2 1 1 2 1 0 0 1 1 1 0 1 2 3 2 2 2 2 3 3 2 2 0 1 2 2 2 2 2 4 4 2 1 2 1 2 2 1 6 10 13 13 9 7 9 9 9 8 4 5 8 7 8 8 7 10 14 19 23 22
6 5 5 7 7 6 5 4 5 6 6 5 6 5 2 1 3 2 2 4 2 0 1 2 1 1 1 1 1 1 2 2 1 0 1 1 0 1 2 3 3 2 2 3 2 1 0 3 5 2 1 2 2 1 1 1 2 3 1 0 1 1 1 1 1 4 9 10 8 6 7 8 8 10 7 3 4 6 5 5 6 8 12 16 19 20 18
9 9 8 8 9 8 6 5 5 4 3 4 5 4 3 4 4 4 5 4 2 1 1 1 1 1 1 2 0 1 2 2 0 1 1 1 1 1 2 4 4 2 2 4 2 1 1 4 5 2 1 2 1 1 1 1 1 2 2 0 1 1 1 2 1 3 7 6 6 10 12 7 5 8 7 4 4 3 2 3 5 8 14 19 18 14 12
13 12 12 11 10 9 7 5 5 4 4 5 5 3 4 6 4 2 4 4 1 2 1 1 2 1 1 2 1 0 2 1 1 1 0 1 2 2 2 3 3 2 2 3 1 1 3 4 3 2 3 3 0 1 1 1 1 1 2 1 1 1 1 2 2 2 6 6 8 11 12 7 4 5 3 2 1 4 4 5 9 12 13 13 12 11 10
17 16 16 15 13 12 10 8 6 6 5 6 7 8 7 5 3 1 4 5 1 1 1 2 2 1 1 1 1 0 1 1 1 2 1 1 2 1 2 2 2 2 2 2 2 2 3 4 3 3 3 3 1 2 2 2 1 0 1 1 1 2 1 2 1 1 5 9 10 9 8 5 3 1 3 3 3 5 7 9 12 15 13 10 12 12 12
19 18 18 17 16 15 13 12 9 8 6 7 10 12 9 6 5 3 4 5 1 1 1 2 1 0 0 1 1 1 2 1 1 2 1 1 2 0 2 1 1 2 1 1 1 1 2 3 3 1 1 1 2 3 4 3 2 1 2 2 1 1 3 3 1 1 5 7 7 8 7 4 1 3 4 3 1 3 9 12 12 13 14 13 13 12 12
20 19 18 17 17 15 14 13 11 9 8 7 9 12 11 7 5 3 4 5 2 1 2 1 2 1 1 1 2 3 1 1 1 0 1 1 1 1 1 2 1 1 1 1 1 2 3 3 3 2 2 3 2 3 4 3 2 2 3 4 3 1 3 3 2 2 3 4 4 5 7 2 4 3 3 2 2 5 10 14 12 11 11 9 10 12 13
20 20 19 19 18 16 15 14 12 10 8 4 5 10 10 5 3 3 3 5 3 0 2 2 1 2 1 1 2 2 1 2 1 1 1 0 1 2 3 2 2 1 1 1 2 2 2 2 2 2 2 2 1 2 3 3 3 3 3 3 2 2 3 2 2 1 1 3 4 6 8 3 3 1 2 3 3 6 8 12 12 8 5 6 9 13 15
19 19 19 19 19 18 17 16 13 12 9 5 5 10 9 5 5 5 4 5 5 1 0 1 2 3 3 2 1 0 1 1 1 0 1 1 1 2 2 3 3 2 2 1 2 2 1 2 3 3 2 1 3 2 1 1 2 2 2 2 3 3 3 0 1 1 0 3 4 5 8 5 2 2 2 4 3 4 6 11 10 3 5 8 11 14 17
19 19 19 19 18 18 17 16 15 13 10 7 8 12 12 9 9 10 8 6 5 2 0 1 2 0 2 2 2 1 0 2 2 1 1 1 2 2 1 4 4 2 1 1 2 2 1 1 2 3 3 2 3 3 1 1 1 1 1 3 4 5 4 1 1 3 2 3 4 4 6 5 1 2 3 3 2 4 6 8 6 3 8 11 12 14 17
20 20 19 19 18 17 16 15 14 13 11 9 9 13 14 11 9 10 9 6 4 3 1 3 3 2 1 2 1 1 0 1 1 1 0 1 2 2 1 2 2 2 1 1 2 2 2 2 2 3 3 1 1 3 3 2 2 1 0 3 4 4 3 1 2 4 3 3 4 3 4 3 1 3 5 4 4 6 8 9 7 6 11 12 12 15 18
20 19 19 19 19 18 17 14 12 11 10 9 10 14 16 11 8 8 8 5 4 4 2 5 3 1 1 1 1 1 1 1 1 1 1 1 2 2 1 1 0 1 1 1 2 2 2 3 2 2 3 1 1 1 3 3 4 2 0 2 3 2 2 2 3 4 4 4 3 3 4 2 1 1 3 5 7 7 8 10 10 11 13 12 12 15 17
21 20 20 19 20 20 19 17 15 12 10 8 7 11 14 11 8 10 9 6 4 3 2 4 4 2 2 1 1 0 0 1 1 2 1 1 0 1 1 0 0 1 1 0 2 2 1 2 1 0 2 2 1 1 2 2 2 2 3 3 2 1 1 2 2 2 2 3 3 5 4 2 3 3 2 1 5 8 8 9 10 12 14 13 13 14 15
21 21 21 20 21 21 20 20 18 15 14 11 8 12 17 12 6 5 6 7 6 4 3 4 5 5 4 3 1 1 1 0 1 2 3 1 2 1 2 2 1 0 1 0 2 1 0 2 2 1 2 3 1 1 2 1 1 1 3 2 1 0 1 2 2 1 1 2 2 3 5 2 1 5 5 2 2 7 8 9 10 11 12 13 12 12 13
20 21 21 21 21 21 21 21 19 16 16 11 7 14 20 18 14 10 9 14 12 4 2 3 5 6 7 5 4 2 2 2 2 2 2 3 2 2 1 2 2 2 1 1 2 1 0 1 2 1 2 2 0 1 3 3 2 1 2 0 1 1 1 2 2 1 1 2 1 2 6 6 4 5 5 4 5 6 6 7 9 9 9 10 10 11 12
20 20 20 20 21 21 22 22 20 18 17 13 10 16 19 19 18 12 11 19 20 11 7 9 9 10 10 9 6 4 3 3 2 1 1 3 1 2 0 2 2 2 1 2 1 2 1 2 2 2 3 3 1 1 2 2 4 3 2 0 2 1 2 0 2 1 2 3 5 6 8 7 5 4 5 7 8 7 6 7 8 8 8 8 9 11 14
19 19 19 20 21 21 22 23 21 20 19 15 15 19 20 18 17 13 13 21 23 14 10 10 9 9 10 9 9 7 5 4 2 2 2 1 2 1 1 2 3 1 1 3 1 1 2 2 1 2 2 2 2 3 1 2 2 2 1 1 2 1 3 3 1 3 3 4 8 8 7 6 6 6 6 7 7 5 6 7 9 9 9 8 9 12 15
19 19 19 20 21 21 22 23 22 21 20 17 17 20 22 20 18 16 16 16 11 6 5 4 3 4 4 5 6 7 6 5 2 1 2 1 2 1 2 3 3 1 1 3 1 1 1 2 0 1 1 1 2 2 3 2 1 2 3 3 0 2 3 2 1 3 4 5 7 6 6 7 9 10 8 6 6 5 6 7 9 10 11 10 10 13 15
19 19 19 19 20 21 22 22 21 19 18 17 16 17 18 15 11 10 10 8 5 4 4 3 2 2 2 3 4 5 6 5 4 1 2 2 1 1 1 3 3 1 1 4 3 1 1 2 0 0 2 1 2 1 2 2 1 1 2 3 2 1 1 1 2 2 4 8 9 8 9 10 11 10 7 6 7 8 8 9 11 12 13 13 15 16 15
18 17 18 18 19 20 20 21 21 20 18 16 15 17 17 15 11 9 11 11 7 5 4 3 1 2 3 3 3 4 5 6 5 4 2 2 1 1 2 4 3 3 3 3 2 1 1 2 0 1 2 1 2 1 2 2 2 2 2 2 1 0 0 1 3 3 6 9 9 11 14 15 12 10 8 8 9 10 11 12 13 13 12 13 16 19 18
15 14 13 13 13 14 16 17 18 19 19 19 19 19 19 17 13 9 8 6 4 3 3 3 2 2 4 4 4 6 5 6 6 5 4 2 1 1 1 3 3 3 3 2 1 0 1 1 1 1 1 1 1 0 1 1 1 2 3 2 0 1 3 3 3 4 6 8 9 11 12 12 12 13 12 10 10 11 12 13 12 12 13 13 15 19 21
15 14 13 11 9 6 6 7 9 12 14 16 18 21 23 22 18 14 9 5 4 4 3 3 4 4 4 2 4 7 6 5 5 6 4 3 3 2 0 2 4 3 1 1 1 1 1 1 0 0 1 1 1 1 1 1 1 2 3 2 2 2 3 4 3 5 7 10 11 10 9 10 13 14 13 13 13 12 12 13 13 13 15 15 15 16 18
16 16 16 15 13 10 6 3 1 2 5 7 9 12 17 20 19 17 14 11 12 11 6 3 5 4 1 0 2 6 7 6 4 3 3 3 2 1 2 3 4 3 1 1 1 1 1 1 2 0 0 1 1 2 1 1 2 2 2 3 4 3 2 3 4 7 9 10 11 10 10 12 14 14 13 14 15 12 10 12 14 15 18 19 17 17 18
16 18 18 18 18 17 14 8 2 1 0 3 3 4 7 10 13 15 13 10 10 10 6 3 3 2 1 1 0 4 7 5 2 1 0 1 2 2 3 3 3 2 2 2 0 1 1 1 2 1 0 1 1 1 2 2 2 1 2 3 3 3 3 4 4 6 9 10 11 11 11 12 14 15 14 14 16 15 13 15 17 18 20 21 19 19 22
15 16 18 19 19 20 20 17 11 4 1 2 2 2 1 2 7 11 10 7 6 7 5 4 3 2 1 1 0 4 6 4 1 1 1 2 3 2 1 1 1 1 1 1 1 1 1 1 1 1 1 1 1 1 2 3 2 2 3 4 4 4 4 5 5 7 10 12 12 12 12 11 11 13 12 13 18 21 18 18 21 22 22 22 22 22 24
11 12 13 15 16 17 18 19 17 13 13 14 13 9 4 0 4 7 8 6 5 5 5 4 2 1 0 0 0 5 7 4 2 2 1 1 1 2 1 1 1 1 0 1 1 1 1 1 0 1 1 1 1 1 1 2 2 3 4 4 4 4 4 6 7 8 10 11 12 12 14 12 10 11 14 17 22 24 20 20 24 24 23 23 24 25 26
9 9 10 10 10 11 13 14 14 15 19 23 22 19 15 9 5 5 5 5 6 6 4 3 3 1 1 2 1 6 8 3 2 1 0 0 1 1 2 2 2 2 0 1 0 0 0 0 0 0 1 0 1 1 0 1 2 4 5 5 5 5 4 6 8 8 8 11 11 10 12 14 15 17 20 22 23 23 22 23 24 24 23 21 19 21 24
8 8 8 8 8 8 8 10 10 12 15 17 17 19 21 18 13 8 4 3 5 7 5 3 2 1 2 1 1 5 8 3 1 3 2 1 3 3 1 2 2 1 1 1 1 1 1 1 1 1 2 1 1 1 0 2 3 5 5 5 5 6 6 7 8 7 9 12 13 13 15 18 19 20 20 18 19 22 24 24 23 21 17 15 14 18 22
9 8 7 6 6 7 7 7 8 9 11 10 9 11 15 18 19 18 13 7 4 3 3 3 2 2 3 1 2 4 7 3 0 1 1 1 2 1 1 1 0 1 1 1 0 1 1 0 1 2 1 1 1 1 1 4 6 6 6 5 6 7 8 8 9 9 11 14 15 16 18 18 16 14 13 12 15 20 22 21 21 19 15 12 15 20 22
9 8 7 5 4 4 6 7 8 7 6 6 5 6 9 10 13 17 19 17 12 6 2 2 3 2 2 2 2 5 7 3 2 2 1 1 1 0 0 1 1 0 0 1 2 2 1 0 1 1 0 1 1 1 3 5 6 6 5 5 6 7 7 9 11 12 13 15 15 14 14 14 12 11 11 11 14 18 19 18 18 17 15 14 16 18 20
8 8 7 4 3 3 4 6 7 6 5 3 3 4 5 4 4 8 12 14 15 11 6 3 2 2 1 1 2 5 6 3 1 1 1 0 2 1 0 1 1 1 1 2 2 1 1 1 0 1 1 0 1 3 4 5 5 5 5 5 5 5 6 9 11 13 14 16 16 14 13 14 13 12 12 13 14 16 16 16 16 16 16 16 16 18 22
9 8 5 4 3 3 2 4 5 4 3 2 2 2 4 4 4 5 5 6 7 8 6 4 2 1 0 1 2 5 4 2 2 3 1 0 2 1 0 1 0 0 1 1 0 0 1 1 1 0 2 2 1 3 5 4 4 4 4 4 5 7 8 10 12 12 12 14 14 14 14 14 15 14 14 15 15 15 16 18 20 20 20 20 21 23 27
8 6 4 4 3 1 1 5 5 2 2 2 2 2 3 4 3 2 2 2 2 3 3 3 2 1 2 1 2 4 4 1 2 3 2 2 1 1 1 1 0 1 1 1 1 1 1 1 1 0 1 2 2 2 3 3 3 4 4 5 8 11 13 14 14 12 11 12 14 15 14 14 15 14 13 13 15 17 19 21 23 23 23 25 26 27 27
7 5 3 3 2 2 2 6 5 1 1 2 3 2 2 3 2 1 1 2 2 2 2 2 1 1 1 0 1 2 4 3 1 1 2 2 0 1 1 1 0 1 1 1 1 1 1 0 0 0 0 1 3 2 2 2 4 4 5 7 10 13 15 15 16 17 16 15 17 18 18 18 17 16 15 16 16 16 17 20 22 24 26 27 27 27 27
6 5 2 2 2 2 2 5 5 2 1 2 3 3 2 2 1 0 1 2 2 1 0 1 0 1 1 0 2 2 3 3 1 0 1 1 1 1 1 2 0 1 0 2 1 1 1 0 1 0 1 2 4 4 4 4 5 5 6 9 12 15 16 16 18 19 18 17 17 18 19 20 20 19 19 20 19 17 17 20 24 26 26 26 26 28 28
5 4 2 1 2 2 2 3 4 4 2 1 2 2 1 1 1 1 1 2 1 1 0 1 0 1 0 0 1 1 1 2 1 0 1 1 1 1 0 1 1 1 1 1 0 1 1 1 1 0 1 3 5 5 5 5 5 6 7 10 13 15 16 16 17 19 19 18 17 17 18 20 21 19 19 21 22 22 23 24 26 27 27 27 28 29 28
4 3 2 1 2 3 3 3 3 3 2 2 2 2 2 2 1 1 1 0 0 0 1 0 0 0 1 1 0 0 0 1 1 0 1 1 1 1 1 1 1 1 1 0 1 1 1 1 2 1 2 4 5 6 6 6 6 7 8 11 14 16 16 17 18 19 19 19 17 18 20 21 20 20 21 22 23 25 28 28 28 27 28 28 28 28 28
3 2 2 2 1 2 3 2 2 2 3 2 1 1 1 2 1 1 1 1 0 0 1 1 1 2 2 1 1 1 0 1 0 1 0 1 1 1 1 1 1 1 0 1 1 1 2 2 2 1 3 5 5 6 6 6 6 6 7 11 14 16 17 17 18 18 18 19 19 19 20 20 19 20 23 23 23 24 27 28 28 29 29 29 29 29 30
2 2 3 3 2 3 2 1 2 2 2 1 1 1 1 1 2 2 2 1 0 1 1 2 1 1 1 1 1 1 1 1 0 1 1 1 1 0 1 1 1 1 1 0 1 2 2 1 1 3 5 5 5 5 6 7 7 7 7 10 13 16 16 17 17 16 16 18 19 18 18 18 19 21 23 23 23 24 25 26 27 28 29 29 29 31 32
2 2 2 2 1 2 1 1 2 1 1 1 1 1 1 1 1 0 1 1 1 1 2 2 1 1 1 0 1 0 0 1 0 0 0 1 0 1 1 0 1 1 1 1 2 2 2 1 1 3 4 5 5 5 6 7 9 10 8 8 11 15 16 16 16 16 16 18 18 17 16 17 18 20 21 23 24 25 24 25 27 27 27 27 28 30 31
2 1 2 2 1 2 1 1 1 1 1 1 1 1 1 2 2 1 0 1 2 2 1 1 1 1 1 1 0 0 0 1 0 0 0 1 1 1 1 1 0 0 0 1 3 3 1 1 2 3 4 4 5 5 6 7 8 9 9 9 11 14 15 15 15 16 17 18 17 16 17 18 19 19 21 23 24 24 24 26 27 27 27 28 29 29 30
1 1 2 2 1 1 1 1 1 1 0 1 1 2 1 2 2 0 1 0 1 1 0 0 0 0 1 0 0 0 0 1 1 0 0 1 0 1 2 2 2 1 2 3 3 2 1 2 2 2 3 4 4 5 5 5 7 9 10 11 12 13 14 15 15 15 15 16 16 17 19 20 20 20 21 22 22 23 26 27 27 27 28 30 30 29 30
5 2 2 2 1 0 1 2 1 1 1 1 1 1 1 2 1 1 2 1 1 1 0 1 0 0 1 1 0 0 0 0 0 1 1 1 0 0 0 1 3 3 2 3 2 1 1 2 2 3 3 4 5 5 5 6 8 10 11 11 12 13 13 14 14 14 14 15 16 17 20 21 21 22 24 23 23 23 24 25 25 26 28 30 29 28 29
7 4 2 2 1 1 1 1 0 1 1 1 0 1 2 1 1 1 3 2 1 1 1 1 1 0 0 1 1 1 1 0 1 0 0 1 1 1 1 2 4 3 2 2 1 0 1 2 2 2 4 4 5 5 5 7 10 11 11 12 12 12 13 13 12 12 13 15 16 17 19 20 21 23 23 22 22 22 22 22 24 27 31 31 29 28 29
4 4 2 0 0 1 0 0 0 0 1 0 0 1 1 0 2 1 3 2 0 0 0 1 0 1 1 1 1 1 1 0 1 0 1 2 2 2 2 4 4 2 2 1 1 2 3 3 3 1 3 4 5 6 8 9 10 11 11 12 12 12 12 11 11 12 14 15 16 17 18 20 21 22 22 21 22 24 24 24 26 30 33 32 29 28 29
2 2 1 1 0 1 2 1 1 1 1 1 1 1 1 1 2 2 3 2 0 0 0 0 1 1 1 1 1 0 0 0 0 1 2 2 2 3 4 5 3 3 2 1 1 2 3 3 3 2 3 4 5 6 8 9 9 10 11 12 12 11 11 11 11 13 15 16 17 18 19 20 21 22 21 21 23 24 23 24 26 30 31 29 26 26 27
Wind_Direction
125 129 133 141 153 177 225 300 312 307 318 345 350 346 353 36 129 345 349 344 344 57 73 39 31 72 129 205 82 10 31 90 157 291 26 359 324 359 62 64 33 42 29 327 348 18 306 286 6 360 26 57 59 161 279 305 247 256 343 74 43 345 232 266 277 258 160 33 342 357 34 56 85 140 133 120 159 192 209 237 308 338 277 285 286 275 281
122 127 132 146 191 247 276 328 6 24 53 26 6 24 95 44 159 11 7 11 61 83 72 106 80 81 148 125 67 22 46 52 43 36 34 21 351 353 20 82 54 25 30 297 304 29 13 342 114 45 343 52 189 241 5 354 343 38 72 346 352 323 267 310 316 313 330 338 333 335 337 350 146 176 134 115 150 215 251 237 132 269 258 277 290 282 286
119 126 135 161 284 298 304 47 65 72 60 31 35 98 151 43 125 45 20 34 65 86 49 120 116 114 117 87 54 58 71 56 19 19 35 31 9 359 350 84 338 293 150 247 271 195 140 324 139 171 344 118 183 216 198 264 354 67 114 280 309 266 270 304 309 306 315 311 305 304 308 315 306 168 149 154 168 178 241 270 235 270 289 292 277 277 290
118 123 130 146 342 330 267 78 66 72 50 43 63 81 129 60 44 6 12 32 55 66 22 69 103 124 120 84 35 21 64 107 208 347 26 32 337 265 227 176 214 252 249 275 276 208 167 185 307 316 324 83 159 179 193 229 219 99 118 259 254 266 274 279 261 242 247 269 279 291 305 300 287 266 192 176 184 176 126 209 256 286 306 294 268 269 290
120 129 113 92 126 93 96 89 84 95 81 55 62 53 39 66 58 8 357 26 44 51 31 36 71 111 108 88 62 41 70 119 181 359 61 92 281 247 254 269 255 316 329 315 304 306 229 180 191 298 264 286 127 180 200 219 181 152 169 202 153 320 276 275 300 265 260 276 282 287 293 278 277 285 258 182 176 163 141 197 262 302 310 287 285 292 296
127 127 84 54 173 161 133 97 61 69 72 44 64 47 12 50 137 198 214 70 40 39 16 18 53 59 53 95 114 64 90 97 15 28 100 184 184 203 320 16 49 43 352 297 317 342 335 239 188 253 243 263 249 207 219 195 163 159 173 180 113 6 259 231 3 285 282 289 285 278 274 266 271 282 280 239 179 164 182 233 258 283 273 280 298 304 300
118 115 82 60 97 169 173 138 28 68 94 77 81 78 34 65 111 137 304 113 106 44 305 335 52 60 61 95 94 19 74 90 73 326 302 205 172 219 40 40 29 23 344 306 310 343 342 284 268 278 242 268 261 240 248 167 171 188 184 150 127 171 248 232 234 274 285 285 277 268 272 278 281 283 283 269 180 176 208 248 262 269 269 279 296 299 298
100 99 87 71 80 115 134 115 90 90 93 81 75 72 54 132 134 130 93 89 84 36 320 339 36 66 54 83 45 336 56 82 136 157 356 35 126 313 2 3 343 313 304 301 290 352 351 249 254 229 201 266 238 221 314 95 194 211 162 120 191 168 310 317 202 283 292 283 275 288 298 294 293 292 287 256 214 210 224 271 296 299 293 294 299 298 296
97 92 91 84 83 94 106 110 102 81 83 93 78 63 77 104 123 138 114 84 19 357 28 344 20 30 11 45 15 313 61 64 64 38 20 38 49 13 1 346 320 228 227 267 279 31 314 252 256 241 216 257 208 178 350 25 228 208 139 186 231 170 291 313 38 302 291 297 324 321 309 297 279 282 274 235 239 259 272 293 301 303 303 304 305 300 298
93 90 88 86 83 84 86 93 92 83 94 97 87 100 117 101 95 111 99 90 24 355 350 336 54 62 349 28 50 82 75 61 16 48 8 58 58 31 353 340 319 251 228 262 286 323 285 273 286 289 267 277 346 111 45 28 258 212 145 178 161 93 287 299 360 308 285 310 330 314 305 302 281 274 262 210 283 331 322 308 306 305 305 306 302 300 311
85 83 82 80 77 75 72 69 73 80 86 92 112 144 153 131 120 99 78 88 77 343 360 22 59 131 237 36 49 100 113 100 43 66 172 161 88 3 306 321 315 288 264 278 288 288 293 295 289 274 272 281 249 177 174 132 106 113 127 181 175 127 204 259 16 313 286 307 319 314 309 308 288 287 69 64 33 347 318 306 305 304 303 298 296 303 321
82 80 79 78 75 73 70 66 64 69 85 115 134 147 153 140 123 103 88 98 91 322 83 63 26 104 12 15 40 58 80 98 39 55 74 109 112 247 289 283 279 285 248 233 269 291 299 284 256 241 256 242 221 215 201 159 127 141 126 128 143 258 270 267 175 194 271 306 337 334 324 324 151 105 65 46 51 345 313 299 293 298 302 302 303 312 325
82 81 80 79 78 77 75 73 71 73 89 120 135 136 142 141 112 76 87 103 86 352 99 116 268 256 297 321 83 83 83 155 163 171 210 195 156 136 17 11 332 287 194 198 266 293 285 251 209 191 212 207 216 232 216 182 166 190 168 145 154 260 284 276 251 247 290 334 3 317 302 317 123 111 50 19 335 347 329 312 304 305 309 315 319 320 323
82 81 80 78 78 78 77 78 79 80 85 110 138 133 138 141 106 95 104 104 98 38 105 123 181 172 160 5 80 102 197 183 165 229 225 130 72 66 47 18 347 323 304 282 272 279 288 268 251 242 206 192 264 252 205 192 210 210 200 192 205 257 285 312 316 241 280 319 303 284 291 292 143 143 30 37 353 344 330 311 306 309 323 343 333 320 319
80 80 79 77 75 75 74 74 74 75 78 89 122 123 121 111 101 107 107 107 117 145 262 122 145 139 125 81 32 23 228 217 214 191 105 88 65 65 39 360 351 345 340 327 276 260 289 305 310 312 298 305 316 306 141 151 207 198 228 278 290 276 262 53 14 236 262 316 302 304 311 312 136 124 42 51 8 330 313 301 301 331 18 353 334 322 321
75 75 75 74 72 70 69 68 68 70 74 84 102 102 94 88 95 97 91 96 114 134 357 357 339 72 114 81 34 65 320 320 334 26 75 102 123 119 24 354 357 1 5 322 270 261 272 278 291 297 288 303 314 295 251 177 181 143 281 295 293 279 264 153 178 264 305 320 295 297 306 306 96 73 6 19 334 308 311 299 292 10 9 344 333 325 322
70 70 69 70 68 65 64 64 66 71 72 75 86 88 84 83 92 96 91 80 87 105 47 349 318 289 103 79 57 74 257 309 349 23 268 168 132 128 33 352 352 348 348 294 254 247 256 255 256 275 275 290 339 294 283 300 305 308 251 258 251 260 274 221 222 261 275 282 278 271 268 271 60 20 339 330 307 308 316 306 305 349 349 337 330 324 320
67 68 69 69 67 64 62 59 59 65 67 64 69 76 76 75 83 94 97 90 93 112 55 10 354 313 42 56 72 22 326 314 324 269 222 145 126 126 139 175 203 310 336 319 287 277 270 264 265 292 288 305 65 310 316 325 305 297 350 281 254 234 241 220 222 256 273 279 277 273 269 267 61 346 302 308 312 313 311 306 316 335 333 328 328 322 317
66 68 69 69 69 66 61 57 53 52 55 52 57 67 65 64 84 99 100 85 73 103 92 19 24 48 9 297 232 257 311 112 352 330 2 3 169 124 114 183 140 161 177 261 299 291 290 293 305 30 294 301 3 340 328 331 303 319 353 334 316 325 276 250 239 250 259 259 268 294 293 223 189 262 283 359 332 316 306 308 321 327 324 324 325 317 315
66 67 66 66 67 64 60 58 52 49 53 53 62 72 64 54 60 89 109 113 97 89 81 38 31 48 33 10 39 20 333 39 8 3 20 306 258 67 39 341 339 267 187 257 308 301 38 321 331 35 289 288 324 328 305 302 137 41 8 336 279 342 319 295 277 253 301 296 284 315 310 254 231 319 333 59 335 306 305 312 319 320 318 319 317 312 314
64 65 65 64 64 63 61 59 53 50 53 52 68 80 69 60 59 70 111 122 114 104 88 59 53 64 59 51 62 52 24 43 37 13 1 290 273 68 18 297 329 348 344 8 304 273 101 316 316 359 280 274 209 332 315 315 310 15 41 351 248 173 169 287 294 107 50 323 267 270 295 305 351 349 326 315 311 310 315 317 314 315 318 317 312 310 313
64 65 65 64 65 63 62 62 58 55 57 57 70 84 82 76 74 80 103 99 87 84 113 109 91 79 68 58 61 71 74 84 97 78 5 298 303 92 310 311 23 19 343 11 313 295 12 352 311 319 307 296 302 329 343 320 298 322 45 146 244 196 152 193 291 228 188 243 254 270 291 314 2 3 316 314 318 321 331 325 315 313 316 316 312 309 313
64 65 65 64 65 63 61 62 60 59 61 59 62 79 93 95 88 91 101 92 84 87 105 105 92 75 58 42 42 51 58 69 88 106 95 322 328 77 79 28 29 305 348 44 15 311 352 341 316 334 323 320 330 322 302 237 263 320 359 215 208 79 66 71 346 295 287 255 262 283 309 334 346 331 314 315 319 328 340 327 314 312 312 312 311 310 313
63 65 65 64 64 63 61 61 59 58 61 58 59 77 96 101 95 94 97 95 94 95 85 77 70 60 38 21 32 36 33 34 29 125 129 97 6 39 82 40 7 329 38 41 359 278 318 303 337 55 314 336 16 330 306 299 314 358 341 302 239 65 48 60 250 311 327 293 283 313 346 342 327 317 312 315 319 329 335 321 311 310 309 310 312 312 312
62 62 64 64 63 63 61 60 59 58 60 61 64 78 91 94 91 91 90 94 120 126 95 72 27 29 23 22 30 19 9 16 23 47 127 122 80 328 328 349 345 317 343 340 329 331 290 277 268 226 278 339 40 346 313 330 356 42 360 320 311 65 62 279 264 275 280 280 296 331 337 319 313 312 313 322 324 324 325 318 310 309 309 313 316 315 313
60 60 63 65 66 66 65 64 64 64 65 67 70 76 81 80 78 84 92 96 102 99 94 96 62 58 82 69 31 3 5 21 35 54 70 86 127 228 295 328 319 259 259 292 305 321 289 283 326 277 275 359 48 337 314 333 334 348 342 302 280 102 107 278 287 284 275 284 313 338 328 315 314 318 319 323 323 321 320 315 310 310 312 315 316 314 312
54 53 55 59 65 69 71 71 70 69 69 68 68 72 75 72 66 71 88 96 87 67 87 107 118 125 115 87 29 4 8 20 33 46 48 46 72 141 286 316 302 267 252 248 215 139 289 267 195 232 267 353 48 218 249 293 314 312 294 277 322 351 330 333 326 307 299 307 326 336 323 311 312 318 321 323 322 318 315 312 311 315 317 317 315 315 314
53 51 48 46 42 43 56 66 68 69 69 66 64 66 67 62 57 56 57 62 95 105 101 114 131 139 135 89 19 8 10 13 29 44 43 35 54 80 225 280 283 283 296 287 236 234 275 286 313 208 201 11 347 302 245 248 283 298 296 332 53 35 346 355 339 301 301 310 319 324 312 296 300 311 318 318 315 312 310 311 314 317 318 318 316 316 317
51 50 49 46 40 32 17 344 330 62 64 55 51 59 62 58 54 56 58 72 96 103 98 98 117 121 127 92 17 12 9 7 24 50 45 21 27 25 274 274 282 296 310 265 267 290 307 52 66 56 305 21 316 291 309 327 323 329 348 20 41 36 9 355 320 299 300 306 312 314 305 296 300 309 310 308 308 309 309 312 316 318 318 319 320 319 320
49 48 47 45 43 43 39 33 19 230 358 14 6 34 56 49 43 48 59 73 91 103 107 102 111 125 150 155 91 360 358 356 9 80 104 266 255 263 273 270 272 284 270 231 214 354 332 84 94 108 33 37 347 290 340 339 315 337 29 26 19 4 348 334 313 303 303 306 308 306 299 294 299 305 305 307 314 317 315 313 315 317 319 322 324 321 320
46 47 46 44 44 46 46 47 50 51 345 342 4 34 77 14 14 33 51 62 76 94 98 84 99 140 141 118 351 349 352 342 305 181 218 235 233 246 275 270 261 291 291 252 199 106 64 18 61 122 123 38 21 344 342 332 309 330 359 1 354 337 324 315 309 305 305 306 307 302 296 295 302 308 310 316 319 319 316 314 316 318 320 322 323 322 320
38 40 41 41 44 49 53 56 58 62 68 73 75 77 87 348 354 29 48 57 70 91 93 79 101 156 209 161 337 359 356 330 239 203 196 212 242 251 234 212 222 229 226 263 262 81 68 354 350 153 163 7 14 22 346 327 302 296 311 318 319 316 311 309 312 310 309 311 313 310 308 312 318 317 313 314 316 317 315 314 317 319 321 322 322 322 322
26 27 29 35 40 47 55 58 59 66 72 74 73 69 63 55 38 40 51 53 58 65 71 84 106 76 359 173 168 9 5 342 250 317 73 171 347 303 218 194 200 223 267 61 108 111 131 208 342 335 221 279 30 56 358 311 275 282 293 303 314 320 314 309 311 311 312 315 316 311 309 312 314 313 311 311 314 317 317 318 320 322 323 323 322 322 324
14 16 22 33 41 45 51 54 57 67 73 70 65 61 59 57 54 49 46 60 66 61 54 63 94 20 3 168 178 14 17 14 331 11 24 329 351 353 266 215 187 177 4 19 106 104 91 64 2 321 236 209 53 58 350 318 303 300 307 321 333 333 324 316 316 315 315 316 314 307 306 308 310 311 312 313 318 323 325 325 326 326 325 325 324 325 326
8 11 15 26 39 45 49 51 56 64 66 62 59 61 62 60 56 53 52 55 64 66 41 37 58 48 16 347 270 353 14 20 257 359 352 307 360 29 307 285 132 131 295 291 104 70 70 53 322 301 216 130 59 66 307 315 312 314 324 334 338 337 331 325 324 320 315 315 313 310 310 311 310 312 317 321 326 329 329 329 330 330 329 327 327 327 327
2 5 8 10 32 52 54 50 52 55 56 58 71 75 68 62 58 57 58 59 62 75 102 66 60 50 4 316 286 342 5 6 224 231 262 291 347 33 278 332 33 142 284 12 49 41 29 236 294 325 64 77 56 238 263 289 297 307 323 328 330 335 330 322 319 316 313 314 313 312 316 320 320 322 325 327 330 332 332 331 333 334 332 329 329 329 328
1 4 4 6 31 60 55 44 42 42 46 68 97 81 57 49 51 53 53 53 52 56 66 76 74 59 30 245 282 340 357 351 305 336 21 306 316 312 262 26 359 317 9 46 50 14 306 230 73 329 284 184 199 232 249 267 280 293 312 319 321 327 324 318 317 316 316 319 321 324 327 329 329 329 331 330 332 335 336 335 336 337 334 331 330 329 328
360 2 6 19 43 62 49 15 6 13 31 68 119 80 27 20 41 44 32 29 35 38 47 67 81 38 312 244 300 345 2 338 316 346 31 215 313 323 75 69 22 337 19 22 171 214 307 359 60 312 272 272 249 238 247 258 268 281 303 321 327 329 328 325 324 324 324 325 327 329 330 330 330 330 330 328 329 335 339 338 336 335 334 331 330 329 328
4 7 20 39 55 95 20 352 349 360 46 55 86 69 16 13 33 28 349 352 27 19 24 52 62 357 339 314 331 6 24 2 306 332 6 11 355 356 9 5 45 62 13 309 241 70 29 8 40 356 275 293 305 265 250 265 288 304 329 350 348 340 333 327 325 327 325 322 323 325 325 326 328 329 328 326 328 334 339 339 336 334 333 331 331 330 329
13 19 35 52 67 95 25 5 2 31 112 41 40 57 28 21 38 14 320 23 46 18 10 53 72 346 12 350 267 345 24 31 4 337 346 338 9 98 326 303 358 49 3 282 295 26 28 261 279 36 353 339 342 321 288 304 320 329 353 2 352 340 332 327 327 328 325 322 323 325 325 326 329 330 331 332 333 336 339 337 334 332 331 331 331 333 333
18 27 52 75 52 27 10 12 21 49 96 39 33 42 28 16 26 23 28 43 33 339 26 77 294 296 22 151 242 290 13 30 54 114 299 301 64 76 314 278 311 64 284 254 274 37 53 259 275 215 112 20 1 350 343 341 334 336 355 1 349 338 333 331 332 334 334 331 329 329 330 332 333 334 337 339 339 337 335 333 332 332 332 332 334 335 336
19 22 36 60 42 28 30 31 30 35 48 51 42 37 13 351 4 4 26 46 32 274 226 100 246 264 327 92 243 273 4 12 6 250 262 290 16 75 268 282 9 55 251 249 226 74 45 321 281 239 45 25 10 359 354 351 340 337 348 353 346 338 337 338 338 340 342 339 334 336 341 340 337 338 343 345 341 337 335 335 334 334 335 337 337 338 338
354 355 6 30 31 29 33 26 18 27 41 40 37 23 343 344 20 16 304 284 93 358 335 337 267 313 21 62 115 144 15 359 355 262 246 290 345 33 20 359 344 222 225 300 48 45 318 267 234 221 23 17 9 0 352 344 338 340 345 346 344 342 343 346 344 343 345 346 347 349 349 345 340 341 345 347 344 339 337 338 339 339 339 340 341 341 344
334 343 32 61 27 17 20 354 349 44 54 37 45 69 5 336 325 230 269 285 267 65 359 19 24 2 339 359 73 74 342 304 107 106 322 313 23 45 33 328 269 253 337 33 26 248 246 238 220 56 25 9 358 353 346 337 336 342 342 341 344 347 350 351 348 347 349 353 355 354 350 347 346 345 344 346 346 341 336 338 342 343 343 343 343 344 347
343 358 37 37 357 353 23 8 358 42 61 10 234 159 173 262 246 232 270 296 225 157 113 55 36 317 285 318 78 83 310 296 166 112 359 346 7 22 225 234 282 355 36 8 284 267 258 259 11 38 21 356 343 344 339 329 332 342 343 341 346 351 352 352 351 351 353 355 354 353 352 352 350 345 341 342 345 344 341 342 345 345 345 346 346 345 346
79 65 66 70 4 339 45 64 19 31 133 222 258 222 225 283 314 311 301 323 10 88 94 58 3 287 263 322 91 142 306 334 311 182 75 48 348 261 234 182 24 20 22 325 286 261 241 249 42 36 11 343 334 336 326 320 331 347 353 347 345 348 350 352 351 352 354 355 354 354 355 353 349 344 340 341 345 347 347 346 347 348 349 350 348 345 344
89 45 58 87 51 354 30 85 49 332 238 257 326 7 354 324 325 338 337 344 11 48 90 106 289 245 216 181 99 151 337 24 7 268 92 106 234 281 359 54 45 281 255 264 267 263 264 26 41 29 360 339 334 328 316 318 338 355 357 349 344 345 348 350 352 353 356 357 357 356 354 351 348 345 342 342 345 349 350 349 350 352 353 351 349 347 346
98 18 53 90 94 342 31 100 170 225 138 45 2 12 8 313 304 335 136 182 342 21 39 259 299 281 243 225 139 186 335 28 30 311 93 111 209 326 6 360 307 270 199 202 233 273 339 27 35 13 347 330 323 317 314 329 348 354 351 347 346 346 346 347 351 356 359 360 359 356 352 348 346 345 345 345 346 349 351 350 350 352 354 353 351 350 351
73 77 71 86 115 142 102 114 201 230 124 71 359 289 245 274 300 99 124 146 313 354 320 264 268 16 295 295 69 82 8 26 32 328 7 33 346 226 82 310 291 283 237 210 228 301 37 78 64 21 350 329 319 316 322 338 346 346 344 344 344 345 346 349 354 360 4 3 358 353 349 348 347 347 347 347 347 347 348 350 350 352 354 355 353 352 353
54 63 63 64 73 83 106 113 138 231 184 159 231 208 194 251 318 130 138 141 328 310 269 278 275 218 226 31 40 4 308 250 122 84 331 260 210 159 153 229 247 243 216 202 213 146 93 100 78 15 332 316 314 316 327 337 338 335 338 345 349 351 353 355 357 1 2 360 357 353 351 351 350 349 347 345 344 343 346 352 354 354 354 355 355 355 355
47 68 72 69 64 31 358 160 57 291 203 182 7 155 163 45 2 96 150 152 65 342 239 276 351 34 24 16 4 283 263 120 98 93 257 238 178 143 191 235 236 208 167 178 169 129 114 110 106 78 296 298 305 313 321 330 332 334 341 352 360 2 3 3 3 1 358 357 358 358 355 352 351 350 348 348 349 350 352 355 356 354 353 354 355 355 353
61 75 11 317 356 4 328 318 359 45 70 66 37 32 32 22 35 124 162 180 243 358 113 131 95 71 19 296 255 225 45 33 322 258 249 234 190 178 206 227 213 156 155 209 196 130 130 129 130 168 251 273 294 310 319 328 336 342 351 0 6 8 9 7 4 0 358 359 1 0 357 355 355 355 354 356 358 358 354 350 349 350 351 351 352 352 351